Location: Byszew
(52.1813°N, 19.2693°E)
Time: 14:41:22
(UTC+00:00)

ERS-1 Rocket - Pass Details

Date: 03 March 2021
Orbit: 752 x 758 km, 98.4° (Epoch: 12 April)

Event Time Altitude Azimuth Distance (km) Brightness Sun altitude
Exits shadow 20:04:09 33° 353° (N) 1,254 4.3 -32.5°
Drops below altitude 10° 20:06:56 10° 348° (NNW) 2,301 6.0 -32.9°
Sets 20:09:15 0° 347° (NNW) 3,230 6.9 -33.1°
